Weatherford, OK

3:10 AM CST on February 12, 2016 (GMT -0600)
Weatherford

Weather History for KOJA - August, 2014

Change the Weather History Date:

Friday, August 29, 2014

  Actual Average (KJWG) Record (KJWG)
Temperature  
Mean Temperature - -  
Max Temperature - 90 °F 107 °F (1984)
Min Temperature - 66 °F 53 °F (1988)
Moisture  
Dew Point -    
Average Humidity    
Maximum Humidity    
Minimum Humidity    
Precipitation  
Precipitation 0.00 in - - ()
Sea Level Pressure  
Sea Level Pressure 29.92 in    
Wind  
Wind Speed 8 mph (SSW)    
Max Wind Speed 16 mph    
Max Gust Speed 22 mph    
Visibility 10 miles    
Events      
Averages and records for this station are not official NWS values.
T = Trace of Precipitation, MM = Missing Value Source: NWS Daily Summary

Daily Weather History Graph

Daily Weather History Graph

Search for Another Location

Airport or City:

Trip Planner

Search our weather history database for the weather conditions in past years. The results will help you decide how hot, cold, wet, or windy it might be!

Date:

Astronomy

Aug. 29, 2014 Rise Set
Actual Time 7:04 AM CDT 8:05 PM CDT
Civil Twilight 6:38 AM CDT 8:32 PM CDT
Nautical Twilight 6:07 AM CDT 9:03 PM CDT
Astronomical Twilight 5:35 AM CDT 9:35 PM CDT
Moon 10:46 AM CDT (8/29) 10:14 PM CDT (8/29)
Length of Visible Light 13h 53m
Length of Day
13h 01m
Waxing Crescent, 15% of the Moon is Illuminated
Aug 29
Waxing Crescent
Sep 2
First Quarter
Sep 8
Full
Sep 15
Last Quarter
Sep 24
New

Hourly Weather History & Observations

Time (CDT) Temp. Dew Point Humidity Pressure Visibility Wind Dir Wind Speed Gust Speed Precip Events Conditions
12:15 AM - - N/A% 29.93 in 10.0 mi South 9.2 mph - N/A   Clear
12:35 AM - - N/A% 29.95 in 10.0 mi South 5.8 mph - N/A   Clear
12:55 AM - - N/A% 29.96 in 10.0 mi West 9.2 mph - N/A   Clear
1:15 AM - - N/A% 29.96 in 10.0 mi West 10.4 mph - N/A   Clear
1:35 AM - - N/A% 29.92 in 10.0 mi WSW 5.8 mph - N/A   Clear
1:55 AM - - N/A% 29.91 in 10.0 mi SSW 6.9 mph - N/A   Clear
2:15 AM - - N/A% 29.92 in 10.0 mi SW 6.9 mph - N/A   Clear
2:35 AM - - N/A% 29.93 in 10.0 mi NNW 8.1 mph - N/A   Clear
2:55 AM - - N/A% 29.94 in 10.0 mi NW 9.2 mph - N/A   Scattered Clouds
3:15 AM - - N/A% 29.94 in 10.0 mi NW 5.8 mph - N/A   Scattered Clouds
3:35 AM - - N/A% 29.92 in 10.0 mi NW 4.6 mph - N/A   Clear
3:55 AM - - N/A% 29.92 in 10.0 mi West 3.5 mph - N/A   Clear
4:15 AM - - N/A% 29.92 in 10.0 mi Calm Calm - N/A   Clear
4:35 AM - - N/A% 29.92 in 10.0 mi SW 3.5 mph - N/A   Clear
4:55 AM - - N/A% 29.92 in 10.0 mi SSW 4.6 mph - N/A   Clear
5:15 AM - - N/A% 29.92 in 10.0 mi SW 4.6 mph - N/A   Clear
5:35 AM - - N/A% 29.92 in 10.0 mi SSW 4.6 mph - N/A   Clear
5:55 AM - - N/A% 29.92 in 10.0 mi South 5.8 mph - N/A   Clear
6:15 AM - - N/A% 29.92 in 10.0 mi SSW 4.6 mph - N/A   Clear
6:35 AM - - N/A% 29.93 in 10.0 mi South 3.5 mph - N/A   Scattered Clouds
6:55 AM - - N/A% 29.94 in 10.0 mi South 5.8 mph - N/A   Scattered Clouds
7:15 AM - - N/A% 29.94 in 10.0 mi SW 6.9 mph - N/A   Scattered Clouds
7:35 AM - - N/A% 29.94 in 10.0 mi SSW 5.8 mph - N/A   Clear
7:55 AM - - N/A% 29.94 in 10.0 mi SW 4.6 mph - N/A   Clear
8:15 AM - - N/A% 29.95 in 10.0 mi SSW 3.5 mph - N/A   Clear
8:35 AM - - N/A% 29.95 in 10.0 mi SSW 5.8 mph - N/A   Clear
8:55 AM - - N/A% 29.95 in 10.0 mi SSW 5.8 mph - N/A   Clear
9:15 AM - - N/A% 29.95 in 10.0 mi SSW 6.9 mph - N/A   Scattered Clouds
9:35 AM - - N/A% 29.95 in 10.0 mi SW 8.1 mph - N/A   Clear
9:55 AM - - N/A% 29.96 in 10.0 mi SSW 6.9 mph - N/A   Scattered Clouds
10:15 AM - - N/A% 29.97 in 10.0 mi SSW 6.9 mph - N/A   Mostly Cloudy
10:35 AM - - N/A% 29.97 in 10.0 mi SSW 9.2 mph - N/A   Overcast
10:55 AM - - N/A% 29.97 in 10.0 mi SSW 6.9 mph - N/A   Overcast
11:15 AM - - N/A% 29.96 in 10.0 mi SSW 9.2 mph - N/A   Overcast
11:35 AM - - N/A% 29.96 in 10.0 mi South 9.2 mph - N/A   Overcast
11:55 AM - - N/A% 29.96 in 10.0 mi SSW 9.2 mph - N/A   Mostly Cloudy
12:15 PM - - N/A% 29.95 in 10.0 mi SW 15.0 mph 18.4 mph N/A   Scattered Clouds
12:35 PM - - N/A% 29.94 in 10.0 mi SW 11.5 mph 17.3 mph N/A   Mostly Cloudy
12:55 PM - - N/A% 29.94 in 10.0 mi SSW 11.5 mph 16.1 mph N/A   Mostly Cloudy
1:15 PM - - N/A% 29.93 in 10.0 mi SW 13.8 mph 20.7 mph N/A   Overcast
1:35 PM - - N/A% 29.93 in 10.0 mi SSW 12.7 mph 20.7 mph N/A   Mostly Cloudy
1:55 PM - - N/A% 29.92 in 10.0 mi SSW 12.7 mph 20.7 mph N/A   Mostly Cloudy
2:15 PM - - N/A% 29.92 in 10.0 mi SSW 15.0 mph 18.4 mph N/A   Scattered Clouds
2:35 PM - - N/A% 29.91 in 10.0 mi SSW 15.0 mph 21.9 mph N/A   Clear
2:55 PM - - N/A% 29.90 in 10.0 mi South 15.0 mph - N/A   Scattered Clouds
3:15 PM - - N/A% 29.90 in 10.0 mi SW 12.7 mph 21.9 mph N/A   Scattered Clouds
3:35 PM - - N/A% 29.89 in 10.0 mi SSW 11.5 mph 17.3 mph N/A   Mostly Cloudy
3:55 PM - - N/A% 29.87 in 10.0 mi SSW 11.5 mph 18.4 mph N/A   Scattered Clouds
4:15 PM - - N/A% 29.87 in 10.0 mi SSW 11.5 mph 16.1 mph N/A   Clear
4:35 PM - - N/A% 29.87 in 10.0 mi South 11.5 mph 20.7 mph N/A   Scattered Clouds
4:55 PM - - N/A% 29.86 in 10.0 mi South 12.7 mph 17.3 mph N/A   Mostly Cloudy
5:15 PM - - N/A% 29.86 in 10.0 mi SSW 16.1 mph 20.7 mph N/A   Mostly Cloudy
5:35 PM - - N/A% 29.86 in 10.0 mi South 16.1 mph 19.6 mph N/A   Scattered Clouds
5:55 PM - - N/A% 29.86 in 10.0 mi SSW 9.2 mph - N/A   Clear
6:15 PM - - N/A% 29.87 in 10.0 mi South 15.0 mph - N/A   Scattered Clouds
6:35 PM - - N/A% 29.87 in 10.0 mi SSW 12.7 mph 17.3 mph N/A   Scattered Clouds
6:55 PM - - N/A% 29.87 in 10.0 mi SSW 10.4 mph 17.3 mph N/A   Clear
7:15 PM - - N/A% 29.87 in 10.0 mi South 12.7 mph - N/A   Clear
7:35 PM - - N/A% 29.87 in 10.0 mi South 11.5 mph 18.4 mph N/A   Clear
7:55 PM - - N/A% 29.87 in 10.0 mi South 8.1 mph - N/A   Clear
8:15 PM - - N/A% 29.88 in 10.0 mi SSW 6.9 mph - N/A   Clear
8:35 PM - - N/A% 29.89 in 10.0 mi South 8.1 mph - N/A   Clear
8:55 PM - - N/A% 29.90 in 10.0 mi SSW 8.1 mph - N/A   Clear
9:15 PM - - N/A% 29.90 in 10.0 mi SSW 8.1 mph - N/A   Clear
9:35 PM - - N/A% 29.91 in 10.0 mi SSW 6.9 mph - N/A   Clear
9:55 PM - - N/A% 29.92 in 10.0 mi SSW 6.9 mph - N/A   Clear
10:15 PM - - N/A% 29.92 in 10.0 mi SSW 5.8 mph - N/A   Clear
10:35 PM - - N/A% 29.93 in 10.0 mi SSW 6.9 mph - N/A   Clear
10:55 PM - - N/A% 29.93 in 10.0 mi SW 6.9 mph - N/A   Clear
11:15 PM - - N/A% 29.93 in 10.0 mi SW 5.8 mph - N/A   Clear
11:35 PM - - N/A% 29.94 in 10.0 mi SW 6.9 mph - N/A   Clear
11:55 PM - - N/A% 29.95 in 10.0 mi SW 6.9 mph - N/A   Clear